Flag for U.S.A. Weather past 2 weeks in Santa Cruz, California, U.S.A.

Now
64 °F

Clear.


Feels Like: 64 °F
Forecast: 59 / 78 °F
Wind: 6 mph from Southeast

Location: Watsonville Municipal Airport

Current Time: Jul 23, 2014 at 11:10:54 PM

Latest Report: Jul 23, 2014 at 9:53 PM


Visibility: 10 mi

Pressure: 30.05 "Hg

Humidity: 78%

Dew point: 57 °F

Location of Santa CruzLocation

Historic Weather in Santa Cruz — Graph

°F

Santa Cruz temperature yesterday

Maximum temperature yesterday: 73 °F (at 4:53 PM)
Minimum temperature yesterday: 59 °F (at 2:53 AM)
Average temperature yesterday: 65 °F

Past Weeks' High & Low Weather Summary

 TemperatureHumidityPressure
High81 °F (Jul 23, 5:53 PM)93% (Jul 13, 3:53 AM)30.14 "Hg (Jul 13, 3:53 AM)
Low55 °F (Jul 13, 2:53 AM)45% (Jul 23, 11:53 AM)29.87 "Hg (Jul 14, 4:53 AM)
Average66 °F73%30.00 "Hg
* Reported Jul 8 9:53 PM — Jul 23 9:53 PM, Santa Cruz, Weather by CustomWeather, © 2014

Note: Actual official high and low records may vary slightly from our data, if they occured in-between our weather recording intervals... More about our weather records

Advertising

Santa Cruz weather history for previous 24 hours

 ConditionsComfort  
Time TempWeatherWind HumidityBarometerVisibility
9:53 PM
Jul 23
64 °FClear.6 mph78%30.05 "Hg10 mi
8:53 PM65 °FSunny.8 mph78%30.04 "Hg10 mi
7:53 PM67 °FSunny.9 mph79%30.03 "Hg10 mi
6:53 PM75 °FSunny.10 mph62%30.02 "Hg10 mi
5:53 PM81 °FSunny.6 mph49%30.03 "Hg10 mi
4:53 PM80 °FSunny.6 mph52%30.04 "Hg10 mi
3:53 PM77 °FSunny.14 mph58%30.06 "Hg10 mi
2:53 PM79 °FSunny.13 mph52%30.09 "Hg10 mi
1:53 PM79 °FSunny.12 mph52%30.10 "Hg10 mi
12:53 PM79 °FSunny.13 mph48%30.11 "Hg10 mi
11:53 AM79 °FSunny.9 mph45%30.12 "Hg10 mi
10:53 AM76 °FSunny.5 mph50%30.13 "Hg10 mi
9:53 AM73 °FSunny.N/A55%30.14 "Hg10 mi
8:53 AM69 °FSunny.3 mph66%30.14 "Hg10 mi
7:53 AM65 °FSunny.No wind76%30.14 "Hg10 mi
6:53 AM59 °FClear.5 mph81%30.13 "Hg10 mi
5:53 AM58 °FPassing clouds.3 mph84%30.12 "Hg10 mi
4:53 AM60 °FLow clouds.3 mph83%30.11 "Hg10 mi
3:53 AM58 °FPassing clouds.3 mph84%30.11 "Hg10 mi
2:53 AM58 °FClear.3 mph84%30.11 "Hg10 mi
1:53 AM60 °FClear.6 mph80%30.11 "Hg10 mi
Weather by CustomWeather, © 2014

See weather overviewHow to use our weather pages